This demonstration page uses our WeatherBlox Daily Observations layout. Learn more.

Left ArrowRight Arrow

Hourly Observations for November 2, 2018

Temp ( °F °C ) Dew Point ( °F °C ) Humidity (%) Winds ( mph kmh ) Pressure ( in mb ) Visibility ( mi km ) Precip ( " mm )
12:52 am 00:52 Cloudy 53 11.7 30 -1.1 41 41 S 12 19 29.73 1007 10 16 0.00 0.00
1:52 am 01:52 Cloudy 51 10.6 35 1.7 54 54 WNW 12 19 29.73 1007 10 16 0.00 0.00
2:52 am 02:52 Mostly Cloudy 49 9.4 32 0 52 52 WNW 12 19 29.74 1007 10 16 0.00 0.00
3:52 am 03:52 Partly Cloudy 45 7.2 33 0.6 63 63 WNW 10 17 29.75 1007 10 16 0.00 0.00
4:52 am 04:52 Partly Cloudy 44 6.7 34 1.1 68 68 WNW 10 17 29.74 1007 10 16 0.00 0.00
5:52 am 05:52 Mostly Clear 42 5.6 35 1.7 76 76 WNW 9 15 29.75 1007 10 16 0.00 0.00
6:52 am 06:52 Mostly Cloudy 43 6.1 36 2.2 76 76 WNW 10 17 29.75 1008 10 16 0.00 0.00
7:52 am 07:52 Mostly Cloudy 43 6.1 37 2.8 80 80 NW 13 20 29.77 1008 10 16 0.00 0.00
8:52 am 08:52 Partly Cloudy 44 6.7 38 3.3 79 79 NW 13 20 29.79 1009 10 16 0.00 0.00
9:52 am 09:52 Partly Cloudy 47 8.3 39 3.9 74 74 NNW 15 24 29.80 1009 10 16 0.00 0.00
10:19 am 10:19 Mostly Cloudy 48 8.9 39 3.9 71 71 NNW 16 26 29.80 1009 10 16 0.00 0.00
10:52 am 10:52 Mostly Cloudy 48 8.9 39 3.9 71 71 NNW 16 26 29.82 1010 10 16 0.00 0.00
11:52 am 11:52 Mostly Cloudy 50 10 39 3.9 66 66 NNW 18 30 29.84 1011 10 16 0.00 0.00
12:52 pm 12:52 Mostly Cloudy 50 10 38 3.3 63 63 N 15 24 29.84 1011 10 16 0.00 0.00
1:05 pm 13:05 Mostly Cloudy 52 11.1 39 3.9 61 61 NNW 16 26 29.83 1010 10 16 0.00 0.00
1:52 pm 13:52 Mostly Cloudy 51 10.6 38 3.3 61 61 NNW 17 28 29.83 1010 10 16 0.00 0.00
2:52 pm 14:52 Cloudy 50 10 39 3.9 66 66 NNW 15 24 29.83 1010 10 16 0.00 0.00
3:52 pm 15:52 Cloudy 50 10 39 3.9 66 66 NNW 14 22 29.84 1010 10 16 0.00 0.00
4:52 pm 16:52 Mostly Cloudy 49 9.4 38 3.3 66 66 NNW 10 17 29.86 1011 10 16 0.00 0.00
5:52 pm 17:52 Cloudy 49 9.4 39 3.9 69 69 NNW 9 15 29.86 1011 10 16 0.00 0.00
6:52 pm 18:52 Cloudy 48 8.9 39 3.9 71 71 N 7 11 29.86 1011 10 16 0.00 0.00
7:52 pm 19:52 Mostly Cloudy 45 7.2 38 3.3 77 77 NNW 5 7 29.87 1012 10 16 0.00 0.00
8:52 pm 20:52 Mostly Cloudy 45 7.2 39 3.9 80 80 Calm 29.88 1012 10 16 0.00 0.00
9:52 pm 21:52 Mostly Cloudy 44 6.7 38 3.3 79 79 Calm 29.87 1012 10 16 0.00 0.00
10:52 pm 22:52 Cloudy 42 5.6 38 3.3 85 85 Calm 29.88 1012 9 14 0.00 0.00
11:52 pm 23:52 Cloudy 42 5.6 39 3.9 89 89 Calm 29.86 1011 10 16 0.00 0.00

Powered by AerisWeather